Weather History for Indiana, PA

Change the Weather History Date:

Monday, February 24, 2014

  Actual Average Record
Temperature  
Mean Temperature 24 °F -  
Max Temperature 28 °F 42 °F 68 °F (1961)
Min Temperature 21 °F 25 °F 3 °F (2007)
Degree Days  
Heating Degree Days 40    
Moisture  
Dew Point 7 °F    
Average Humidity 50    
Maximum Humidity 63    
Minimum Humidity 40    
Precipitation  
Precipitation 0.00 in - - ()
Sea Level Pressure  
Sea Level Pressure 30.03 in    
Wind  
Wind Speed 11 mph (WNW)    
Max Wind Speed 18 mph    
Max Gust Speed 26 mph    
Visibility 10 miles    
Events      
Averages and records for this station are not official NWS values.
T = Trace of Precipitation, MM = Missing Value Source: NWS Daily Summary

Daily Weather History Graph

Daily Weather History Graph

Search for Another Location

Airport:

Trip Planner

Search our weather history database for the weather conditions in past years. The results will help you decide how hot, cold, wet, or windy it might be!

Date:

Astronomy

Feb. 24, 2014 Rise Set
Actual Time 6:57 AM EST 6:02 PM EST
Civil Twilight 6:30 AM EST 6:29 PM EST
Nautical Twilight 5:58 AM EST 7:01 PM EST
Astronomical Twilight 5:26 AM EST 7:33 PM EST
Moon 2:55 AM EST (2/24) 1:00 PM EST (2/24)
Length of Visible Light 11h 59m
Length of Day
11h 04m
Waning Crescent, 28% of the Moon is Illuminated
Feb 24
Waning Crescent
Mar 1
New
Mar 8
First Quarter
Mar 16
Full
Mar 23
Last Quarter

Hourly Weather History & Observations

Time (EST) Temp. Windchill Dew Point Humidity Pressure Visibility Wind Dir Wind Speed Gust Speed Precip Events Conditions
12:15 AM 28.4 °F 19.7 °F 12.2 °F 51% 29.97 in 10.0 mi WNW 9.2 mph 20.7 mph N/A   Clear
12:35 AM 28.4 °F 18.0 °F 12.2 °F 51% 29.97 in 10.0 mi WNW 12.7 mph 17.3 mph N/A   Clear
12:55 AM 26.6 °F 16.2 °F 12.2 °F 55% 29.97 in 10.0 mi WNW 11.5 mph 20.7 mph N/A   Clear
1:15 AM 26.6 °F 17.5 °F 12.2 °F 55% 29.98 in 10.0 mi WNW 9.2 mph - N/A   Clear
1:35 AM 26.6 °F 16.2 °F 12.2 °F 55% 29.98 in 10.0 mi West 11.5 mph 16.1 mph N/A   Clear
1:55 AM 26.6 °F 16.8 °F 12.2 °F 55% 29.99 in 10.0 mi West 10.4 mph - N/A   Clear
2:15 AM 24.8 °F 14.0 °F 12.2 °F 59% 29.99 in 10.0 mi WNW 11.5 mph 19.6 mph N/A   Clear
2:35 AM 24.8 °F 16.1 °F 12.2 °F 59% 29.99 in 10.0 mi WNW 8.1 mph 16.1 mph N/A   Clear
2:55 AM 24.8 °F 16.1 °F 10.4 °F 54% 29.99 in 10.0 mi WNW 8.1 mph - N/A   Scattered Clouds
3:15 AM 23.0 °F 13.9 °F 8.6 °F 54% 29.99 in 10.0 mi West 8.1 mph - N/A   Scattered Clouds
3:35 AM 23.0 °F 13.1 °F 8.6 °F 54% 29.99 in 10.0 mi WNW 9.2 mph - N/A   Scattered Clouds
3:55 AM 23.0 °F 13.1 °F 6.8 °F 50% 29.99 in 10.0 mi WNW 9.2 mph - N/A   Scattered Clouds
4:15 AM 21.2 °F 12.6 °F 6.8 °F 54% 29.99 in 10.0 mi West 6.9 mph - N/A   Scattered Clouds
4:35 AM 21.2 °F 12.6 °F 6.8 °F 54% 29.99 in 10.0 mi WNW 6.9 mph - N/A   Scattered Clouds
4:55 AM 21.2 °F 12.6 °F 6.8 °F 54% 30.00 in 10.0 mi WNW 6.9 mph - N/A   Mostly Cloudy
5:15 AM 21.2 °F 12.6 °F 6.8 °F 54% 30.00 in 10.0 mi WNW 6.9 mph - N/A   Overcast
5:35 AM 21.2 °F 10.1 °F 6.8 °F 54% 30.00 in 10.0 mi WNW 10.4 mph - N/A   Overcast
5:55 AM 21.2 °F 10.9 °F 6.8 °F 54% 30.00 in 10.0 mi West 9.2 mph - N/A   Overcast
6:15 AM 21.2 °F 9.5 °F 6.8 °F 54% 30.00 in 10.0 mi West 11.5 mph 18.4 mph N/A   Overcast
6:35 AM 21.2 °F 10.9 °F 6.8 °F 54% 30.00 in 10.0 mi West 9.2 mph 17.3 mph N/A   Overcast
6:55 AM 21.2 °F 8.3 °F 6.8 °F 54% 30.00 in 10.0 mi West 13.8 mph 20.7 mph N/A   Overcast
7:15 AM 21.2 °F 8.3 °F 6.8 °F 54% 30.00 in 10.0 mi West 13.8 mph 17.3 mph N/A   Overcast
7:35 AM 21.2 °F 11.7 °F 8.6 °F 58% 30.01 in 10.0 mi West 8.1 mph - N/A   Overcast
7:55 AM 21.2 °F 11.7 °F 8.6 °F 58% 30.02 in 10.0 mi West 8.1 mph - N/A   Overcast
8:15 AM 21.2 °F 7.3 °F 8.6 °F 58% 30.02 in 10.0 mi West 16.1 mph 19.6 mph N/A   Overcast
8:35 AM 21.2 °F 8.9 °F 8.6 °F 58% 30.02 in 10.0 mi West 12.7 mph 24.2 mph N/A   Overcast
8:55 AM 21.2 °F 10.1 °F 10.4 °F 63% 30.02 in 10.0 mi West 10.4 mph 16.1 mph N/A   Overcast
9:15 AM 21.2 °F 6.8 °F 10.4 °F 63% 30.02 in 10.0 mi West 17.3 mph 24.2 mph N/A   Overcast
9:35 AM 23.0 °F 10.6 °F 10.4 °F 59% 30.02 in 10.0 mi West 13.8 mph 25.3 mph N/A   Overcast
9:55 AM 23.0 °F 12.4 °F 10.4 °F 59% 30.03 in 10.0 mi West 10.4 mph - N/A   Overcast
10:15 AM 23.0 °F 10.6 °F 8.6 °F 54% 30.03 in 10.0 mi West 13.8 mph 24.2 mph N/A   Overcast
10:35 AM 24.8 °F 12.4 °F 8.6 °F 50% 30.03 in 10.0 mi WNW 15.0 mph 23.0 mph N/A   Overcast
10:55 AM 24.8 °F 12.9 °F 8.6 °F 50% 30.02 in 10.0 mi West 13.8 mph 19.6 mph N/A   Overcast
11:15 AM 26.6 °F 15.7 °F 8.6 °F 47% 30.03 in 10.0 mi WNW 12.7 mph 24.2 mph N/A   Overcast
11:35 AM 24.8 °F 14.0 °F 8.6 °F 50% 30.03 in 10.0 mi WNW 11.5 mph 23.0 mph N/A   Mostly Cloudy
11:55 AM 24.8 °F 12.4 °F 8.6 °F 50% 30.03 in 10.0 mi WNW 15.0 mph 24.2 mph N/A   Mostly Cloudy
12:15 PM 26.6 °F 15.2 °F 8.6 °F 47% 30.03 in 10.0 mi West 13.8 mph 23.0 mph N/A   Mostly Cloudy
12:35 PM 24.8 °F 12.4 °F 8.6 °F 50% 30.02 in 10.0 mi West 15.0 mph 25.3 mph N/A   Overcast
12:55 PM 26.6 °F 15.2 °F 8.6 °F 47% 30.02 in 10.0 mi West 13.8 mph 21.9 mph N/A   Overcast
1:15 PM 26.6 °F 14.7 °F 6.8 °F 43% 30.02 in 10.0 mi WNW 15.0 mph 21.9 mph N/A   Mostly Cloudy
1:40 PM 26.6 °F 13.8 °F 8.6 °F 47% 30.02 in 10.0 mi WNW 17.3 mph 24.2 mph N/A   Mostly Cloudy
1:55 PM 28.4 °F 18.5 °F 8.6 °F 43% 30.02 in 10.0 mi NW 11.5 mph 26.5 mph N/A   Overcast
2:15 PM 26.6 °F 13.4 °F 8.6 °F 47% 30.02 in 10.0 mi WNW 18.4 mph 25.3 mph N/A   Overcast
2:35 PM 26.6 °F 15.2 °F 8.6 °F 47% 30.02 in 10.0 mi WNW 13.8 mph 21.9 mph N/A   Mostly Cloudy
2:55 PM 26.6 °F 15.7 °F 8.6 °F 47% 30.02 in 10.0 mi NW 12.7 mph 24.2 mph N/A   Mostly Cloudy
3:15 PM 26.6 °F 14.7 °F 8.6 °F 47% 30.03 in 10.0 mi NW 15.0 mph 26.5 mph N/A   Mostly Cloudy
3:35 PM 28.4 °F 18.5 °F 8.6 °F 43% 30.04 in 10.0 mi WNW 11.5 mph 19.6 mph N/A   Mostly Cloudy
3:55 PM 26.6 °F 13.8 °F 6.8 °F 43% 30.03 in 10.0 mi WNW 17.3 mph 26.5 mph N/A   Mostly Cloudy
4:15 PM 26.6 °F 13.4 °F 6.8 °F 43% 30.04 in 10.0 mi West 18.4 mph 26.5 mph N/A   Scattered Clouds
4:35 PM 28.4 °F 17.5 °F 6.8 °F 40% 30.05 in 10.0 mi WNW 13.8 mph 23.0 mph N/A   Clear
4:55 PM 26.6 °F 13.8 °F 6.8 °F 43% 30.05 in 10.0 mi West 17.3 mph 24.2 mph N/A   Scattered Clouds
5:15 PM 26.6 °F 14.3 °F 5.0 °F 40% 30.06 in 10.0 mi WNW 16.1 mph 21.9 mph N/A   Scattered Clouds
5:35 PM 26.6 °F 16.8 °F 6.8 °F 43% 30.06 in 10.0 mi WNW 10.4 mph 21.9 mph N/A   Clear
5:55 PM 26.6 °F 16.8 °F 5.0 °F 40% 30.06 in 10.0 mi WNW 10.4 mph 21.9 mph N/A   Clear
6:20 PM 24.8 °F 14.0 °F 3.2 °F 40% 30.07 in 10.0 mi WNW 11.5 mph 17.3 mph N/A   Clear
6:35 PM 24.8 °F 16.1 °F 3.2 °F 40% 30.08 in 10.0 mi WNW 8.1 mph 16.1 mph N/A   Clear
6:55 PM 24.8 °F 16.1 °F 3.2 °F 40% 30.08 in 10.0 mi WNW 8.1 mph - N/A   Clear
7:15 PM 24.8 °F 16.1 °F 3.2 °F 40% 30.09 in 10.0 mi WNW 8.1 mph - N/A   Clear
7:35 PM 24.8 °F 15.3 °F 3.2 °F 40% 30.09 in 10.0 mi West 9.2 mph - N/A   Clear
7:55 PM 24.8 °F 17.9 °F 3.2 °F 40% 30.09 in 10.0 mi WNW 5.8 mph - N/A   Clear
8:15 PM 24.8 °F 14.0 °F 3.2 °F 40% 30.09 in 10.0 mi WNW 11.5 mph - N/A   Clear
8:35 PM 24.8 °F 15.3 °F 3.2 °F 40% 30.09 in 10.0 mi West 9.2 mph - N/A   Clear
8:55 PM 23.0 °F 13.9 °F 3.2 °F 43% 30.09 in 10.0 mi WNW 8.1 mph - N/A   Clear
9:15 PM 23.0 °F 13.1 °F 3.2 °F 43% 30.09 in 10.0 mi WNW 9.2 mph - N/A   Clear
9:35 PM 23.0 °F 15.8 °F 3.2 °F 43% 30.09 in 10.0 mi WNW 5.8 mph - N/A   Clear
9:55 PM 21.2 °F 14.9 °F 3.2 °F 46% 30.09 in 10.0 mi West 4.6 mph - N/A   Clear
10:15 PM 21.2 °F 13.6 °F 5.0 °F 50% 30.09 in 10.0 mi West 5.8 mph - N/A   Clear
10:35 PM 21.2 °F 13.6 °F 5.0 °F 50% 30.09 in 10.0 mi West 5.8 mph - N/A   Clear
10:55 PM 21.2 °F 14.9 °F 5.0 °F 50% 30.09 in 10.0 mi West 4.6 mph - N/A   Clear
11:15 PM 21.2 °F 16.4 °F 6.8 °F 54% 30.08 in 10.0 mi West 3.5 mph - N/A   Clear
11:35 PM 21.2 °F 12.6 °F 5.0 °F 50% 30.07 in 10.0 mi West 6.9 mph - N/A   Clear
11:55 PM 21.2 °F 13.6 °F 5.0 °F 50% 30.06 in 10.0 mi West 5.8 mph - N/A   Clear